Change the Weather History Date:

Wednesday, May 7, 2014

  Actual Average (K3TH) Record (K3TH)
Temperature  
Mean Temperature 38 °F -  
Max Temperature 46 °F 63 °F 84 °F (1998)
Min Temperature 30 °F 41 °F 33 °F (1999)
Degree Days  
Heating Degree Days 28    
Moisture  
Dew Point 28 °F    
Average Humidity 84    
Maximum Humidity 100    
Minimum Humidity 35    
Precipitation  
Precipitation 0.00 in - - ()
Sea Level Pressure  
Sea Level Pressure 29.83 in    
Wind  
Wind Speed 2 mph (NW)    
Max Wind Speed 7 mph    
Max Gust Speed -    
Visibility 6 miles    
Events Fog , Rain , Snow    
Averages and records for this station are not official NWS values.
T = Trace of Precipitation, MM = Missing Value Source: NWS Daily Summary

Daily Weather History Graph

Daily Weather History Graph

Search for Another Location

Airport or City:

Trip Planner

Search our weather history database for the weather conditions in past years. The results will help you decide how hot, cold, wet, or windy it might be!

Date:

Astronomy

May. 07, 2014 Rise Set
Actual Time 5:16 AM PDT 8:02 PM PDT
Civil Twilight 4:41 AM PDT 8:38 PM PDT
Nautical Twilight 3:56 AM PDT 9:23 PM PDT
Astronomical Twilight 3:03 AM PDT 10:16 PM PDT
Moon 12:43 PM PDT (5/7) 1:47 AM PDT (5/7)
Length of Visible Light 15h 56m
Length of Day
14h 46m
First Quarter, 56% of the Moon is Illuminated
May 7
First Quarter
May 14
Full
May 21
Last Quarter
May 28
New
Jun 5
First Quarter

Hourly Weather History & Observations

Time (PDT) Temp. Windchill Dew Point Humidity Pressure Visibility Wind Dir Wind Speed Gust Speed Precip Events Conditions
12:53 AM 30.9 °F 27.5 °F 28.9 °F 92% 29.75 in 10.0 mi NNW 3.5 mph - N/A   Clear
1:53 AM 32.0 °F 27.5 °F 28.9 °F 88% 29.75 in 10.0 mi NW 4.6 mph - N/A   Clear
2:53 AM 30.9 °F 26.2 °F 28.9 °F 92% 29.74 in 10.0 mi NW 4.6 mph - N/A   Clear
3:43 AM 30.2 °F - 28.4 °F 93% 29.85 in 10.0 mi Calm Calm - N/A   Mostly Cloudy
3:53 AM 30.9 °F - 30.0 °F 96% 29.76 in 10.0 mi Calm Calm - N/A   Overcast
4:23 AM 30.2 °F - 28.4 °F 93% 29.85 in 10.0 mi Calm Calm - N/A   Overcast
4:53 AM 30.0 °F - 28.9 °F 96% 29.76 in 10.0 mi Calm Calm - N/A   Overcast
5:06 AM 30.2 °F 26.7 °F 30.2 °F 100% 29.85 in 10.0 mi Variable 3.5 mph - N/A   Overcast
5:13 AM 30.2 °F - 30.2 °F 100% 29.85 in 10.0 mi Calm Calm - N/A   Overcast
5:16 AM 30.2 °F - 28.4 °F 93% 29.86 in 8.0 mi Calm Calm - N/A   Overcast
5:28 AM 30.2 °F 26.7 °F 28.4 °F 93% 29.86 in 1.8 mi ESE 3.5 mph - N/A   Overcast
5:44 AM 30.2 °F - 30.2 °F 100% 29.86 in 1.0 mi Calm Calm - N/A   Mist
5:49 AM 30.2 °F - 30.2 °F 100% 29.86 in 0.8 mi Calm Calm - N/A   Mist
5:53 AM 30.0 °F - 30.0 °F 100% 29.77 in 0.2 mi Calm Calm - N/A Fog Light Freezing Fog
6:39 AM 30.2 °F - 30.2 °F 100% 29.86 in 0.5 mi Calm Calm - N/A Fog Light Freezing Fog
6:47 AM 30.2 °F - 30.2 °F 100% 29.86 in 0.2 mi Calm Calm - N/A Fog Light Freezing Fog
6:53 AM 30.0 °F 26.5 °F 30.0 °F 100% 29.78 in 0.2 mi East 3.5 mph - N/A Fog Light Freezing Fog
7:06 AM 30.2 °F 26.7 °F 30.2 °F 100% 29.86 in 0.2 mi Variable 3.5 mph - N/A Fog Light Freezing Fog
7:53 AM 30.9 °F - 30.0 °F 96% 29.79 in 0.2 mi Calm Calm - N/A Fog Light Freezing Fog
8:02 AM 30.2 °F - 30.2 °F 100% 29.87 in 0.5 mi Calm Calm - N/A Fog Light Freezing Fog
8:17 AM 30.2 °F - 30.2 °F 100% 29.88 in 1.2 mi Calm Calm - N/A   Overcast
8:28 AM 30.2 °F - 30.2 °F 100% 29.88 in 0.8 mi Calm Calm - N/A   Mist
8:33 AM 30.2 °F - 30.2 °F 100% 29.88 in 1.8 mi Calm Calm - N/A   Overcast
8:35 AM 30.2 °F - 30.2 °F 100% 29.88 in 3.0 mi Calm Calm - N/A   Overcast
8:53 AM 30.9 °F - 28.9 °F 92% 29.80 in 10.0 mi Calm Calm - N/A   Overcast
9:09 AM 30.2 °F - 30.2 °F 100% 29.88 in 1.5 mi Calm Calm - N/A   Overcast
9:35 AM 30.2 °F 25.4 °F 30.2 °F 100% 29.88 in 0.2 mi SSE 4.6 mph - N/A Fog Light Freezing Fog
9:59 AM 30.2 °F 25.4 °F 30.2 °F 100% 29.89 in 1.5 mi SSE 4.6 mph - N/A   Overcast
10:01 AM 30.2 °F 26.7 °F 30.2 °F 100% 29.89 in 3.0 mi South 3.5 mph - N/A   Overcast
10:28 AM 30.2 °F - 28.4 °F 93% 29.89 in 10.0 mi Calm Calm - N/A   Overcast
10:35 AM 32.0 °F 28.7 °F 30.2 °F 93% 29.89 in 10.0 mi Variable 3.5 mph - N/A   Overcast
10:53 AM 33.1 °F - 28.0 °F 82% 29.81 in 10.0 mi Calm Calm - N/A   Overcast
11:04 AM 33.8 °F - 30.2 °F 87% 29.89 in 10.0 mi Calm Calm - N/A   Overcast
11:16 AM 35.6 °F - 28.4 °F 75% 29.89 in 10.0 mi Calm Calm - N/A   Overcast
11:38 AM 35.6 °F - 28.4 °F 75% 29.90 in 8.0 mi Calm Calm - 0.00 in Snow Light Snow
11:53 AM 37.0 °F 34.5 °F 27.0 °F 67% 29.80 in 9.0 mi NNW 3.5 mph - 0.00 in Snow Light Snow
12:53 PM 41.0 °F 38.0 °F 27.0 °F 57% 29.78 in 10.0 mi NNW 4.6 mph - 0.00 in   Overcast
1:53 PM 39.9 °F 35.1 °F 25.0 °F 55% 29.77 in 10.0 mi Variable 6.9 mph - N/A   Mostly Cloudy
2:53 PM 44.1 °F 41.5 °F 18.0 °F 35% 29.75 in 10.0 mi Variable 4.6 mph - N/A   Mostly Cloudy
3:53 PM 45.0 °F 41.8 °F 19.9 °F 37% 29.75 in 10.0 mi Variable 5.8 mph - N/A   Scattered Clouds
4:53 PM 43.0 °F 39.5 °F 24.1 °F 47% 29.76 in 10.0 mi Variable 5.8 mph - 0.00 in Rain Light Rain
5:53 PM 39.0 °F 34.8 °F 23.0 °F 53% 29.78 in 10.0 mi NNW 5.8 mph - N/A   Clear
6:53 PM 41.0 °F 38.0 °F 21.9 °F 47% 29.77 in 10.0 mi NNW 4.6 mph - N/A   Overcast
7:53 PM 36.0 °F 33.3 °F 23.0 °F 59% 29.79 in 10.0 mi NW 3.5 mph - N/A   Clear
8:53 PM 35.1 °F 31.0 °F 23.0 °F 61% 29.81 in 10.0 mi NW 4.6 mph - N/A   Clear
9:53 PM 36.0 °F 33.3 °F 23.0 °F 59% 29.80 in 10.0 mi WNW 3.5 mph - N/A   Clear
10:53 PM 34.0 °F 31.0 °F 24.1 °F 67% 29.80 in 10.0 mi WNW 3.5 mph - N/A   Clear
11:53 PM 37.0 °F 33.3 °F 23.0 °F 57% 29.78 in 10.0 mi WSW 4.6 mph - N/A   Clear